Greenville, ME

3:22 PM EST on November 15, 2019 (GMT -0500)
Greenville

Weather History for KGNR - September, 2019

Change the Weather History Date:

Saturday, September 7, 2019

  Actual Average (KMLT) Record (KMLT)
Temperature  
Mean Temperature 51 °F -  
Max Temperature 54 °F 70 °F 94 °F (1945)
Min Temperature 48 °F 49 °F 29 °F (1962)
Degree Days  
Heating Degree Days 14    
Growing Degree Days 1 (Base 50)    
Moisture  
Dew Point 45 °F    
Average Humidity 79    
Maximum Humidity 89    
Minimum Humidity 69    
Precipitation  
Precipitation 0.01 in - - ()
Sea Level Pressure  
Sea Level Pressure 29.79 in    
Wind  
Wind Speed 7 mph ()    
Max Wind Speed 14 mph    
Max Gust Speed 24 mph    
Averages and records for this station are not official NWS values.
T = Trace of Precipitation, MM = Missing Value Source: Averaged Metar Reports

Daily Weather History Graph

Daily Weather History Graph

Search for Another Location

Airport or City:

Astronomy

Sep. 07, 2019 Rise Set
Actual Time 6:06 AM EDT 7:05 PM EDT
Civil Twilight 5:36 AM EDT 7:35 PM EDT
Nautical Twilight 5:00 AM EDT 8:11 PM EDT
Astronomical Twilight 4:22 AM EDT 8:49 PM EDT
Moon 3:32 PM EDT (9/7) No Moon Set
Length of Visible Light 13h 58m
Length of Day
12h 58m
Waxing Gibbous, 65% of the Moon is Illuminated
Sep 7
Waxing Gibbous
Sep 14
Full
Sep 21
Last Quarter
Sep 28
New
Oct 5
First Quarter

Hourly Weather History & Observations

Time (EDT) Temp. Dew Point Humidity Pressure Visibility Wind Dir Wind Speed Gust Speed Precip Events Conditions
12:56 AM 52.0 °F 48.0 °F 86% 29.96 in - East 5.8 mph - N/A   Unknown
1:56 AM 52.0 °F 46.9 °F 83% 29.94 in - East 4.6 mph - N/A   Unknown
2:56 AM 53.1 °F 44.1 °F 71% 29.91 in - East 6.9 mph - N/A   Unknown
3:56 AM 53.1 °F 43.0 °F 69% 29.90 in - East 4.6 mph - N/A   Unknown
4:56 AM 53.1 °F 43.0 °F 69% 29.89 in - NNE 3.5 mph - N/A   Unknown
5:56 AM 52.0 °F 43.0 °F 71% 29.85 in - NNE 8.1 mph - N/A   Unknown
6:56 AM 52.0 °F 44.1 °F 74% 29.85 in - ENE 9.2 mph - N/A   Unknown
7:56 AM 53.1 °F 44.1 °F 71% 29.82 in - ENE 9.2 mph - N/A   Unknown
8:56 AM 54.0 °F 46.0 °F 75% 29.80 in - ENE 4.6 mph - N/A   Unknown
9:56 AM 54.0 °F 46.9 °F 77% 29.80 in - Variable 5.8 mph - N/A   Unknown
10:56 AM 53.1 °F 46.9 °F 80% 29.79 in - North 4.6 mph - N/A   Unknown
11:56 AM 52.0 °F 48.9 °F 89% 29.76 in - North 6.9 mph - N/A   Unknown
12:56 PM 52.0 °F 48.0 °F 86% 29.73 in - North 8.1 mph - 0.01 in   Unknown
1:56 PM 51.1 °F 46.9 °F 86% 29.72 in - North 11.5 mph - N/A   Unknown
2:56 PM 52.0 °F 46.9 °F 83% 29.70 in - North 11.5 mph 19.6 mph N/A   Unknown
3:56 PM 52.0 °F 45.0 °F 77% 29.70 in - North 13.8 mph 24.2 mph N/A   Unknown
4:56 PM 52.0 °F 45.0 °F 77% 29.71 in - North 10.4 mph - N/A   Unknown
5:56 PM 51.1 °F 45.0 °F 80% 29.72 in - NNW 11.5 mph - N/A   Unknown
6:56 PM 50.0 °F 43.0 °F 77% 29.72 in - NNW 12.7 mph 19.6 mph N/A   Unknown
7:56 PM 50.0 °F 42.8 °F 76% 29.71 in - NNW 10.4 mph 24.2 mph N/A   Unknown
8:00 PM - - N/A% - - North - - N/A   Unknown
8:56 PM 48.9 °F 44.1 °F 83% 29.73 in - NNW 11.5 mph - N/A   Unknown
9:56 PM 48.0 °F 43.0 °F 83% 29.74 in - NNW 9.2 mph - N/A   Unknown
10:56 PM 48.0 °F 43.0 °F 83% 29.74 in - North 8.1 mph - N/A   Unknown
11:56 PM 48.0 °F 43.0 °F 83% 29.74 in - North 9.2 mph - N/A   Unknown